EN

Hourly Weather Altkirch

Today, 28 January, Thursday

Time Temperature Precipitation Wind Pressure Humidity
00:00 +4°C° 0 mm 2 mps 731 mmHg 96%
01:00 +4°C° 0.3 mm 2 mps 731 mmHg 96%
02:00 +4°C° 0.3 mm 2 mps 730 mmHg 96%
03:00 +4°C° 0.3 mm 2 mps 730 mmHg 96%
04:00 +4°C° 0.9 mm 2 mps 729 mmHg 97%
05:00 +5°C° 0.9 mm 2 mps 728 mmHg 97%
06:00 +5°C° 0.9 mm 2 mps 727 mmHg 97%
07:00 +5°C° 1.8 mm 3 mps 727 mmHg 96%
08:00 +5°C° 1.8 mm 4 mps 727 mmHg 95%
09:00 +6°C° 1.8 mm 5 mps 726 mmHg 95%
10:00 +7°C° 1.4 mm 5 mps 726 mmHg 94%
11:00 +7°C° 1.4 mm 6 mps 726 mmHg 94%
12:00 +8°C° 1.4 mm 6 mps 726 mmHg 93%
13:00 +8°C° 1.2 mm 6 mps 726 mmHg 93%
14:00 +8°C° 1.2 mm 6 mps 727 mmHg 93%
15:00 +8°C° 1.2 mm 6 mps 727 mmHg 94%
16:00 +8°C° 0.3 mm 5 mps 727 mmHg 94%
17:00 +8°C° 0.3 mm 5 mps 727 mmHg 94%
18:00 +8°C° 0.3 mm 5 mps 728 mmHg 94%
19:00 +8°C° 0.2 mm 4 mps 728 mmHg 94%
20:00 +8°C° 0.2 mm 4 mps 728 mmHg 94%
21:00 +8°C° 0.2 mm 3 mps 728 mmHg 94%
22:00 +8°C° 0.1 mm 3 mps 727 mmHg 94%
23:00 +8°C° 0.1 mm 3 mps 727 mmHg 93%

Tomorrow, 29 January, Friday

Time Temperature Precipitation Wind Pressure Humidity
00:00 +8°C° 0.1 mm 3 mps 727 mmHg 93%
01:00 +8°C° 1.5 mm 3 mps 726 mmHg 93%
02:00 +8°C° 1.5 mm 3 mps 725 mmHg 94%
03:00 +7°C° 1.5 mm 4 mps 724 mmHg 94%
04:00 +7°C° 2.3 mm 4 mps 723 mmHg 94%
05:00 +8°C° 2.3 mm 5 mps 723 mmHg 94%
06:00 +8°C° 2.3 mm 5 mps 722 mmHg 94%
07:00 +8°C° 1.1 mm 6 mps 723 mmHg 91%
08:00 +8°C° 1.1 mm 6 mps 724 mmHg 89%
09:00 +8°C° 1.1 mm 7 mps 724 mmHg 86%
10:00 +8°C° 0.3 mm 7 mps 725 mmHg 84%
11:00 +7°C° 0.3 mm 8 mps 725 mmHg 81%
12:00 +7°C° 0.3 mm 8 mps 725 mmHg 78%
13:00 +7°C° 0.5 mm 8 mps 725 mmHg 80%
14:00 +6°C° 0.5 mm 7 mps 724 mmHg 81%
15:00 +6°C° 0.5 mm 7 mps 724 mmHg 82%
16:00 +5°C° 0.8 mm 7 mps 724 mmHg 82%
17:00 +5°C° 0.8 mm 7 mps 725 mmHg 83%
18:00 +5°C° 0.8 mm 7 mps 725 mmHg 84%
19:00 +4°C° 0.2 mm 6 mps 726 mmHg 85%
20:00 +4°C° 0.2 mm 6 mps 726 mmHg 85%
21:00 +4°C° 0.2 mm 6 mps 727 mmHg 86%
22:00 +5°C° 0 mm 5 mps 727 mmHg 87%
23:00 +5°C° 0 mm 5 mps 727 mmHg 88%

Day after tomorrow, 30 January, Saturday

Time Temperature Precipitation Wind Pressure Humidity
00:00 +3°C° 0 mm 5 mps 727 mmHg 88%
01:00 +4°C° 0 mm 4 mps 726 mmHg 88%
02:00 +4°C° 0 mm 4 mps 726 mmHg 88%
03:00 +4°C° 0 mm 3 mps 725 mmHg 88%
04:00 +4°C° 0 mm 3 mps 724 mmHg 87%
05:00 +5°C° 0 mm 2 mps 723 mmHg 87%
06:00 +5°C° 0 mm 2 mps 722 mmHg 86%
07:00 +5°C° 0.1 mm 2 mps 721 mmHg 86%
08:00 +6°C° 0.1 mm 2 mps 720 mmHg 87%
09:00 +6°C° 0.1 mm 2 mps 720 mmHg 87%
10:00 +6°C° 1 mm 2 mps 719 mmHg 89%
11:00 +6°C° 1 mm 2 mps 718 mmHg 92%
12:00 +6°C° 1 mm 2 mps 717 mmHg 94%
13:00 +6°C° 1.2 mm 2 mps 717 mmHg 95%
14:00 +6°C° 1.2 mm 2 mps 717 mmHg 95%
15:00 +7°C° 1.2 mm 3 mps 716 mmHg 96%
16:00 +7°C° 0.3 mm 3 mps 717 mmHg 95%
17:00 +7°C° 0.3 mm 3 mps 717 mmHg 95%
18:00 +7°C° 0.3 mm 3 mps 718 mmHg 94%
19:00 +7°C° 0.3 mm 3 mps 718 mmHg 94%
20:00 +7°C° 0.3 mm 3 mps 718 mmHg 94%
21:00 +7°C° 0.3 mm 3 mps 718 mmHg 95%
22:00 +5°C° 0.4 mm 3 mps 718 mmHg 94%
23:00 +5°C° 0.4 mm 3 mps 718 mmHg 94%

31 January, Sunday

Time Temperature Precipitation Wind Pressure Humidity
00:00 +5°C° 0.4 mm 3 mps 718 mmHg 94%
01:00 +5°C° 0.1 mm 3 mps 718 mmHg 94%
02:00 +5°C° 0.1 mm 2 mps 718 mmHg 93%
03:00 +5°C° 0.1 mm 2 mps 718 mmHg 93%
04:00 +4°C° 0 mm 2 mps 718 mmHg 92%
05:00 +5°C° 0 mm 1 mps 718 mmHg 92%
06:00 +4°C° 0 mm 1 mps 718 mmHg 91%
07:00 +5°C° 0.1 mm 1 mps 718 mmHg 90%
08:00 +6°C° 0.1 mm 1 mps 719 mmHg 89%
09:00 +6°C° 0.1 mm 1 mps 719 mmHg 88%
10:00 +7°C° 0.1 mm 1 mps 718 mmHg 86%
11:00 +7°C° 0.1 mm 1 mps 718 mmHg 85%
12:00 +8°C° 0.1 mm 1 mps 718 mmHg 83%
13:00 +8°C° 0.1 mm 1 mps 718 mmHg 85%
14:00 +8°C° 0.1 mm 1 mps 717 mmHg 87%
15:00 +8°C° 0.1 mm 1 mps 717 mmHg 90%
16:00 +8°C° 0.5 mm 1 mps 717 mmHg 91%
17:00 +6°C° 0.5 mm 2 mps 716 mmHg 92%
18:00 +6°C° 0.5 mm 2 mps 716 mmHg 93%
19:00 +6°C° 0.6 mm 2 mps 716 mmHg 93%
20:00 +6°C° 0.6 mm 2 mps 715 mmHg 94%
21:00 +6°C° 0.6 mm 2 mps 715 mmHg 94%
22:00 +6°C° 0.7 mm 2 mps 714 mmHg 94%
23:00 +6°C° 0.7 mm 2 mps 714 mmHg 95%

1 February, Monday

Time Temperature Precipitation Wind Pressure Humidity
00:00 +6°C° 0.7 mm 2 mps 714 mmHg 95%
01:00 +6°C° 1.3 mm 2 mps 714 mmHg 95%
02:00 +6°C° 1.3 mm 2 mps 714 mmHg 95%
03:00 +6°C° 1.3 mm 2 mps 713 mmHg 95%
04:00 +6°C° 0.9 mm 2 mps 714 mmHg 95%
05:00 +7°C° 0.9 mm 2 mps 714 mmHg 95%
06:00 +7°C° 0.9 mm 3 mps 715 mmHg 94%
07:00 +7°C° 0.8 mm 3 mps 716 mmHg 94%
08:00 +7°C° 0.8 mm 3 mps 716 mmHg 95%
09:00 +7°C° 0.8 mm 3 mps 717 mmHg 95%
10:00 +7°C° 0.3 mm 3 mps 718 mmHg 91%
11:00 +8°C° 0.3 mm 3 mps 719 mmHg 88%
12:00 +8°C° 0.3 mm 3 mps 720 mmHg 85%
13:00 +8°C° 0.1 mm 3 mps 720 mmHg 86%
14:00 +8°C° 0.1 mm 2 mps 721 mmHg 86%
15:00 +8°C° 0.1 mm 2 mps 721 mmHg 87%
16:00 +7°C° 0.1 mm 2 mps 722 mmHg 89%
17:00 +7°C° 0.1 mm 2 mps 723 mmHg 91%
18:00 +7°C° 0.1 mm 1 mps 724 mmHg 93%
19:00 +7°C° 0.1 mm 1 mps 725 mmHg 93%
20:00 +7°C° 0.1 mm 1 mps 726 mmHg 93%
21:00 +7°C° 0.1 mm 1 mps 727 mmHg 94%
22:00 +7°C° 0 mm 1 mps 727 mmHg 93%
23:00 +5°C° 0 mm 2 mps 728 mmHg 93%

2 February, Tuesday

Time Temperature Precipitation Wind Pressure Humidity
00:00 +5°C° 0 mm 2 mps 728 mmHg 93%
01:00 +5°C° 0 mm 2 mps 729 mmHg 93%
02:00 +5°C° 0 mm 2 mps 729 mmHg 93%
03:00 +5°C° 0 mm 1 mps 729 mmHg 94%
04:00 +5°C° 0 mm 1 mps 730 mmHg 93%
05:00 +5°C° 0 mm 1 mps 730 mmHg 93%
06:00 +6°C° 0 mm 1 mps 730 mmHg 93%
07:00 +6°C° 0 mm 1 mps 730 mmHg 91%
08:00 +7°C° 0 mm 1 mps 730 mmHg 89%
09:00 +7°C° 0 mm 2 mps 729 mmHg 87%
10:00 +7°C° 0.3 mm 2 mps 729 mmHg 89%
11:00 +7°C° 0.3 mm 2 mps 729 mmHg 90%
12:00 +7°C° 0.3 mm 2 mps 729 mmHg 92%
13:00 +8°C° 0.4 mm 2 mps 728 mmHg 90%
14:00 +8°C° 0.4 mm 3 mps 728 mmHg 89%
15:00 +9°C° 0.4 mm 3 mps 728 mmHg 88%
16:00 +9°C° 0.4 mm 3 mps 728 mmHg 89%
17:00 +9°C° 0.4 mm 3 mps 728 mmHg 90%
18:00 +9°C° 0.4 mm 3 mps 728 mmHg 91%
19:00 +9°C° 0.5 mm 3 mps 728 mmHg 91%
20:00 +9°C° 0.5 mm 3 mps 728 mmHg 91%
21:00 +9°C° 0.5 mm 3 mps 728 mmHg 92%
22:00 +9°C° 1.3 mm 3 mps 728 mmHg 93%
23:00 +9°C° 1.3 mm 3 mps 728 mmHg 94%
Show more